www.pogodaiklimat.ru

Погода и климат >> Архив погоды >> Китай >> Beijing


АРХИВ ПОГОДЫ в Beijing

Время (UTC), дата Ветер
(напр.,м/с)
 
Видим.   Явления Облачность Т
(С)
Тd
(С)
f
(%)
Тe
(С)
Тes
(С)
Комфортность P
(гПа)
Po
(гПа)
Тmin
(С)
Tmax
(С)
R
(мм)
R24
(мм)
S
(см)
18 20.05 В 4 11 км ?/? +22.8 +14.1 58 +26 +26 жарко 1009.4 1005.7 +35.1
21 20.05 В 3 6000 м мгла ?/? +19.9 +12.9 64 +22 +22 комфорт 1010.3 1010.0
00 21.05 В 2 н/о мгла 9/9 2000 м
[]
+21.6 +15.2 67 +25 +26 комфорт 1011.6 1007.9
03 21.05 ЮВ 3 6000 м мгла 9/9
[]
+26.0 +16.0 54 +29 +31 душно 1010.9 1011.0
06 21.05 ЮВ 3 11 км 9/9
[]
+27.5 +11.9 38 +29 +30 жарко 1008.9 1005.2 +19.8
09 21.05 ЮВ 4 16 км 9/9
[]
+27.3 +12.5 40 +29 +29 жарко 1007.5 1008.0
12 21.05 В 4 6000 м мгла 9/9
[]
+22.8 +15.1 62 +27 +27 душно 1009.9 1006.1
15 21.05 В 2 н/о мгла ?/? +21.4 +15.0 67 +25 +25 комфорт 1011.7 1012.0
18 21.05 В 2 12 км н/о +20.6 +11.8 57 +23 +23 комфорт 1010.2 1006.5 +28.8
21 21.05 В 3 6000 м мгла ?/? +19.5 +13.0 66 +21 +21 комфорт 1009.9 1010.0
00 22.05 В 3 2200 м слабый дождь 10/10 1000 м
[]
+17.9 +15.3 85 +18 +18 прохладно 1010.8 1007.0
03 22.05 С 3 2100 м слабый дождь 10/10 200 м
[]
+16.9 +15.9 94 +17 +17 холодно 1012.9 1013.0
06 22.05 СВ 3 7000 м слабый дождь 10/10 600 м
[]
+16.5 +15.2 92 +16 +16 очень
холодно
1013.5 1009.7 +16.1 27
09 22.05 В 2 17 км в посл. час дождь 10/10 1500 м
[]
+17.2 +14.8 86 +18 +18 очень
холодно
1013.2 1013.0
12 22.05 СВ 1 13 км {дождь} 10/10
[]
+17.2 +14.7 85 +18 +18 холодно 1014.4 1010.6 2
15 22.05 ЮЗ 1 8000 м ?/? +17.1 +15.1 88 +18 +18 прохладно 1016.2 1016.0
18 22.05 З 1 3700 м дымка н/о +15.5 +14.4 93 +16 +16 прохладно 1016.2 1012.3 +20.6
21 22.05 штиль 0 3100 м дымка ?/? +13.4 +12.8 96 +13 +13 холодно 1016.1 1016.0
00 23.05 СВ 1 9000 м ясно +19.2 +11.8 62 +21 +29 комфорт 1016.1 1012.3
03 23.05 З 2 30 км ясно +24.5 +7.2 33 +25 +43 комфорт 1015.5 1016.0
06 23.05 З 2 26 км 4/4 1000 м
[]
+28.2 +5.1 23 +27 +37 жарко 1013.2 1009.4 +13.2
09 23.05 Ю 5 17 км 3/3 1000 м
[]
+28.3 +9.6 31 +28 +30 жарко 1010.6 1011.0
12 23.05 ЮЗ 3 18 км ясно +24.3 +9.9 40 +25 +25 комфорт 1010.9 1007.1
15 23.05 Ю 1 16 км ?/? +21.2 +9.1 46 +22 +22 комфорт 1011.4 1011.0
18 23.05 штиль 0 11 км н/о +15.7 +11.1 74 +16 +16 прохладно 1010.6 1006.8 +29.4
21 23.05 В 1 9000 м ?/? +13.7 +11.2 85 +14 +14 холодно 1010.8 1011.0
00 24.05 С 2 12 км ясно +24.9 +5.2 28 +24 +31 комфорт 1011.2 1007.5
03 24.05 ЮЗ 4 30 км ясно +31.1 +4.0 18 +29 +41 жарко 1009.7 1010.0
06 24.05 ЮЗ 4 30 км ясно +33.0 +3.9 16 +30 +42 жарко 1007.1 1003.4 +13.6
09 24.05 З 7 24 км 9/9
[]
+32.4 +5.1 18 +30 +30 жарко 1005.0 1005.0
12 24.05 ЮЗ 4 30 км ясно +28.0 +6.2 25 +27 +27 жарко 1004.8 1001.1
15 24.05 З 2 30 км ?/? +25.4 +5.6 28 +25 +25 комфорт 1006.5 1007.0
18 24.05 штиль 0 15 км ?/? +18.4 +10.0 58 +19 +19 по сезону 1007.5 1003.8 +33.7
21 24.05 штиль 0 7000 м мгла ?/? +17.1 +8.5 57 +17 +17 прохладно 1009.0 1009.0
00 25.05 С 3 30 км ясно +22.1 +3.9 30 +22 +22 комфорт 1011.4 1007.7
03 25.05 ЮВ 3 15 км ясно +27.5 +9.8 33 +28 +43 жарко 1012.7 1013.0
06 25.05 ЮЗ 5 14 км 6/6
[]
+28.1 +12.5 38 +29 +33 жарко 1011.9 1008.1 +17.0
09 25.05 Ю 5 18 км 5/5
[]
+26.5 +9.4 34 +27 +28 жарко 1011.3 1011.0
12 25.05 Ю 5 24 км 8/8
[]
+23.0 +7.1 36 +24 +24 комфорт 1012.3 1008.6
15 25.05 Ю 2 22 км ?/? +19.3 +5.7 41 +20 +20 по сезону 1013.5 1014.0
18 25.05 Ю 2 20 км н/о +17.7 +4.3 41 +18 +18 по сезону 1012.8 1009.0 +29.1
21 25.05 В 2 18 км ?/? +14.8 +9.2 69 +15 +15 холодно 1012.1 1012.0
00 26.05 штиль 0 19 км ясно +19.6 +6.7 43 +20 +29 по сезону 1012.3 1008.5
03 26.05 Ю 2 17 км 9/9
[]
+23.3 +5.7 32 +24 +26 комфорт 1011.1 1011.0
06 26.05 Ю 3 12 км 9/9
[]
+26.5 +8.0 31 +26 +28 жарко 1008.6 1004.8 +14.7
09 26.05 ЮЗ 3 12 км 9/9
[]
+29.0 +10.2 31 +29 +30 жарко 1006.0 1006.0
12 26.05 Ю 1 12 км 4/4
[]
+26.1 +11.8 41 +27 +27 жарко 1005.8 1002.1
15 26.05 В 3 14 км ?/? +21.5 +12.9 58 +24 +24 комфорт 1006.9 1007.0
18 26.05 В 2 9000 м н/о +18.7 +12.2 66 +20 +20 по сезону 1006.5 1002.8 +29.0
21 26.05 СВ 1 13 км ?/? +18.0 +7.1 49 +19 +19 по сезону 1006.7 1007.0
00 27.05 В 4 13 км 9/9
[]
+21.4 +6.1 37 +22 +23 комфорт 1006.8 1003.1
03 27.05 СВ 3 12 км 9/9
[]
+25.2 +8.2 34 +26 +27 жарко 1006.1 1006.0
06 27.05 ЮЗ 2 8000 м 9/9
[]
+29.0 +12.8 37 +30 +32 жарко 1004.0 1000.3 +18.0
09 27.05 Ю 3 8000 м 9/9
[]
+30.5 +15.0 39 +33 +33 душно 1002.2 1002.0
12 27.05 ЮВ 2 7000 м мгла 9/9
[]
+27.8 +17.0 52 +32 +32 душно 1002.5 998.8

 

Местоположение метеостанции Beijing (Китай): широта 39.93 долгота 116.28 высота над уровнем моря 55 м.

В архиве по умолчанию представлена погода в Beijing за последнюю неделю. Архивные данные за месяц целиком и за предыдущие месяцы, начиная с января 2011 года, Вы можете получить, выбрав интересующий диапазон дат из раскрывающегося списка и нажав кнопку "Ввод!".

Внимание! Время в таблицах - всемирное. Для получения местного времени необходимо прибавить поправку, которая в Beijing равна 8 ч.

Смотрите также архив погоды в соседних городах и на ближайших метеорологических станциях:

Погода в Huailai (Китай) (84 км)
Погода в Tianjin (Китай) (119 км)
Погода в Baoding (Китай) (135 км)
Погода в Fengning (Китай) (146 км)
Погода в Yu Xian (Китай) (147 км)
Погода в Zhangjiakou (Китай) (152 км)
Погода в Tangshan (Китай) (162 км)
Погода в Chengde (Китай) (183 км)
Погода в Potou (Китай) (207 км)
Погода в Leting (Китай) (231 км)

Пояснения к столбцам:

Ветер - указаны скорость ветра в м/с - средняя за 10 мин, порывы в срок и между сроками (в фигурных скобках) и направление, откуда дует ветер: С - северный, СВ - северо-восточный, В - восточный, ЮВ - юго-восточный, Ю - южный, ЮЗ - юго-западный, З - западный, СЗ - северо-западный.
Видимость - горизонтальная дальность видимости в метрах или километрах. При видимости от 1 до 10 км при отсутствии осадков обычно наблюдается дымка, при ухудшении видимости до 1 км и менее - туман. В сухую погоду видимость может ухудшаться дымом, пылью или мглою.
Явления - указаны атмосферные явления, наблюдавшиеся в срок или в последний час перед сроком; фигурными скобками обозначены явления, наблюдавшиеся между сроками (за 1-3 часа до срока); квадратными скобками обозначены град или гололедные отложения с указанием их диаметра в мм.
Облачность - указаны через наклонную черту общая и нижняя облачность в баллах и высота нижней границы облаков в метрах; квадратными скобками обозначены формы облаков: Ci - перистые, Cs - перисто-слоистые, Cc - перисто-кучевые, Ac - высококучевые, As - высокослоистые, Sc - слоисто-кучевые, Ns - слоисто-дождевые, Cu - кучевые, Cb - кучево-дождевые. Подробнее классификацию облаков см. в Атласе облаков (PDF).
T - Температура воздуха - температура, измеренная на высоте 2 м над землей.
Td - Температура точки росы - температура, при понижении до которой содержащийся в воздухе водяной пар достигнет насыщения.
f - Относительная влажность воздуха - влажноcть воздуха, измеренная на высоте 2 м над землей.
Te - Эффективная температура - температура, которую ощущает одетый по сезону человек в тени. Характеристика душности погоды. При расчете учитывается влияние влажности воздуха и скорости ветра на теплоощущения человека.
Tes - Эффективная температура на солнце - температура, которую ощущает человек, с поправкой на солнечный нагрев. Характеристика знойности погоды. Зависит от высоты солнца над горизонтом, облачности и скорости ветра. Ночью, в пасмурную погоду, а также при ветре 12 м/с и более поправка равна нулю.
P - Атмосферное давление - приведенное к уровню моря атмосферное давление.
Po - Атмосферное давление - измеренное на уровне метеостанции атмосферное давление.
Tmin - Минимальная температура - минимум температуры воздуха на высоте 2 м над землей.
Tmax - Максимальная температура - максимум температуры воздуха на высоте 2 м над землей.
R - Количество осадков - Количество выпавших осадков за период времени, мм. При наведении курсора мыши на число - период времени, за который выпало указанное количество осадков.
R24 - Количество осадков - Количество выпавших осадков за 24 часа, мм.
S - Снежный покров - Высота снежного покрова, см. При наведении курсора мыши на число - состояние снежного покрова и степень покрытия местности в баллах.